OCN8HK LGMK-EDDM

Flight info

Callsign OCN8HK
Flight time N/A
Altitude 36000
Route VARIX UL995 KEA UN132 ROPOX UM749 SKP UL617 MAKED DCT SKJ DCT LONTA UL608 DOLEV DCT PODET DCT EXHEK DCT REDBU Q112 NAPSA NAPSA4A
Aircraft A320/M-SDE2E3FGIJ1LORWXYZ/HB1

Departure

Time 2026-05-09 16:45
Airport Mykonos Island National Airport (LGMK)

Arrival

Time N/A
Airport Munich Airport (EDDM)
Time Latitude Longitude Altitude Speed Heading
2026-05-09 16:33 37.43463 25.34657 407 ft 0 kts 251°
2026-05-09 16:34 37.43463 25.34658 407 ft 0 kts 251°
2026-05-09 16:38 37.43468 25.34682 407 ft 4 kts 265°
2026-05-09 16:38 37.43465 25.34714 402 ft 4 kts 302°
2026-05-09 16:39 37.43447 25.34736 403 ft 4 kts 336°
2026-05-09 16:39 37.43434 25.34742 406 ft 0 kts 341°
2026-05-09 16:42 37.43578 25.34680 406 ft 11 kts 342°
2026-05-09 16:42 37.43641 25.34688 408 ft 8 kts 34°
2026-05-09 16:42 37.43703 25.34731 411 ft 13 kts 10°
2026-05-09 16:42 37.43821 25.34686 411 ft 21 kts 340°
2026-05-09 16:43 37.43982 25.34616 410 ft 27 kts 340°
2026-05-09 16:43 37.44143 25.34542 407 ft 17 kts 340°
2026-05-09 16:43 37.44221 25.34505 406 ft 11 kts 334°
2026-05-09 16:43 37.44272 25.34447 404 ft 7 kts 327°
2026-05-09 16:44 37.44297 25.34468 404 ft 4 kts 88°
2026-05-09 16:44 37.44273 25.34487 405 ft 5 kts 167°
2026-05-09 16:44 37.44082 25.34570 408 ft 67 kts 160°
2026-05-09 16:44 37.43418 25.34865 411 ft 132 kts 161°
2026-05-09 16:45 37.42432 25.35302 775 ft 153 kts 159°
2026-05-09 16:45 37.41434 25.35738 1592 ft 151 kts 162°
2026-05-09 16:45 37.40394 25.36198 1922 ft 171 kts 163°
2026-05-09 16:45 37.39185 25.36727 2132 ft 195 kts 163°
2026-05-09 16:46 37.37874 25.37304 2607 ft 202 kts 163°
2026-05-09 16:46 37.36559 25.37888 3182 ft 204 kts 163°
2026-05-09 16:46 37.35200 25.38397 3756 ft 204 kts 178°
2026-05-09 16:46 37.33860 25.37944 4269 ft 206 kts 217°
2026-05-09 16:47 37.32942 25.36462 4655 ft 224 kts 239°
2026-05-09 16:47 37.32356 25.34565 5056 ft 247 kts 261°
2026-05-09 16:47 37.32514 25.32335 5573 ft 264 kts 279°
2026-05-09 16:47 37.32847 25.30053 6400 ft 267 kts 278°
2026-05-09 16:48 37.33156 25.27755 7207 ft 268 kts 278°
2026-05-09 16:48 37.33461 25.25432 8032 ft 270 kts 278°
2026-05-09 16:48 37.33767 25.23103 8870 ft 271 kts 278°
2026-05-09 16:48 37.34078 25.20767 9707 ft 272 kts 278°
2026-05-09 16:49 37.34394 25.18414 10471 ft 274 kts 278°
2026-05-09 16:49 37.34710 25.16053 11214 ft 275 kts 278°
2026-05-09 16:49 37.35027 25.13678 11963 ft 276 kts 278°
2026-05-09 16:50 37.35661 25.08895 13454 ft 279 kts 279°
2026-05-09 16:50 37.35980 25.06490 14144 ft 280 kts 279°
2026-05-09 16:50 37.36303 25.04065 14792 ft 282 kts 280°
2026-05-09 16:50 37.36836 25.01661 15203 ft 294 kts 287°
2026-05-09 16:51 37.37502 24.99141 15329 ft 313 kts 287°
2026-05-09 16:51 37.38212 24.96488 15616 ft 325 kts 287°
2026-05-09 16:51 37.38939 24.93782 16150 ft 329 kts 287°